Location: Drawsko Pomorskie
(53.5317°N, 15.8111°E)
Time: 00:57:26
(UTC+01:00)

ISS - Pass Details

Date: 01 February 2019
Orbit: 403 x 411 km, 51.6° (Epoch: 17 February)

Event Time Altitude Azimuth Distance (km) Brightness Sun altitude
Rises 18:55:30 0° 273° (W) 2,338 1.6 -20.3°
Reaches altitude 10° 18:57:37 10° 269° (W) 1,478 0.2 -20.6°
Enters shadow 19:00:40 54° 208° (SSW) 507 -3.3 -21.1°
